• In Uzbekistan
  • List of Countries
  • For 7 days
  • Water Temperature
  • Satellite Maps
  • Weather Map
  • Weather Widgets
  • user-avatar
    Login

    Hourly Weather Mostar

    Today, 23 August, Wednesday

    Time Temperature Precipitation Wind Pressure Humidity
    00:00 +17°C° 0 mm 3 mps 755 mmHg 60%
    01:00 +17°C° 0 mm 3 mps 755 mmHg 62%
    02:00 +17°C° 0 mm 3 mps 755 mmHg 63%
    03:00 +16°C° 0 mm 3 mps 755 mmHg 64%
    04:00 +16°C° 0 mm 3 mps 755 mmHg 64%
    05:00 +17°C° 0 mm 3 mps 755 mmHg 61%
    06:00 +18°C° 0 mm 3 mps 756 mmHg 57%
    07:00 +20°C° 0 mm 3 mps 756 mmHg 53%
    08:00 +23°C° 0 mm 2 mps 756 mmHg 45%
    09:00 +26°C° 0 mm 2 mps 756 mmHg 38%
    10:00 +28°C° 0 mm 1 mps 756 mmHg 31%
    11:00 +29°C° 0 mm 2 mps 756 mmHg 30%
    12:00 +29°C° 0 mm 2 mps 756 mmHg 29%
    13:00 +30°C° 0 mm 2 mps 756 mmHg 30%
    14:00 +30°C° 0 mm 3 mps 756 mmHg 31%
    15:00 +30°C° 0 mm 3 mps 756 mmHg 32%
    16:00 +30°C° 0 mm 3 mps 756 mmHg 34%
    17:00 +27°C° 0 mm 3 mps 756 mmHg 40%
    18:00 +25°C° 0 mm 2 mps 756 mmHg 46%
    19:00 +23°C° 0 mm 2 mps 756 mmHg 53%
    20:00 +23°C° 0 mm 2 mps 757 mmHg 53%
    21:00 +21°C° 0 mm 2 mps 757 mmHg 53%
    22:00 +20°C° 0 mm 2 mps 757 mmHg 54%
    23:00 +20°C° 0 mm 2 mps 757 mmHg 53%

    Tomorrow, 24 August, Thursday

    Time Temperature Precipitation Wind Pressure Humidity
    00:00 +20°C° 0 mm 2 mps 757 mmHg 52%
    01:00 +20°C° 0 mm 2 mps 757 mmHg 51%
    02:00 +19°C° 0 mm 2 mps 757 mmHg 51%
    03:00 +19°C° 0 mm 2 mps 757 mmHg 50%
    04:00 +19°C° 0 mm 2 mps 757 mmHg 50%
    05:00 +20°C° 0 mm 2 mps 757 mmHg 49%
    06:00 +23°C° 0 mm 2 mps 757 mmHg 47%
    07:00 +24°C° 0 mm 2 mps 758 mmHg 46%
    08:00 +26°C° 0 mm 1 mps 758 mmHg 41%
    09:00 +29°C° 0 mm 1 mps 758 mmHg 36%
    10:00 +31°C° 0 mm 1 mps 758 mmHg 31%
    11:00 +32°C° 0 mm 1 mps 758 mmHg 31%
    12:00 +32°C° 0 mm 2 mps 758 mmHg 31%
    13:00 +34°C° 0 mm 3 mps 758 mmHg 31%
    14:00 +33°C° 0 mm 3 mps 758 mmHg 33%
    15:00 +33°C° 0 mm 3 mps 757 mmHg 36%
    16:00 +33°C° 0 mm 3 mps 757 mmHg 38%
    17:00 +29°C° 0 mm 2 mps 757 mmHg 45%
    18:00 +27°C° 0 mm 2 mps 757 mmHg 52%
    19:00 +25°C° 0 mm 1 mps 757 mmHg 60%
    20:00 +25°C° 0 mm 1 mps 758 mmHg 59%
    21:00 +24°C° 0 mm 1 mps 758 mmHg 59%
    22:00 +24°C° 0 mm 1 mps 758 mmHg 59%
    23:00 +24°C° 0 mm 1 mps 758 mmHg 58%

    Day after tomorrow, 25 August, Friday

    Time Temperature Precipitation Wind Pressure Humidity
    00:00 +23°C° 0 mm 1 mps 758 mmHg 57%
    01:00 +23°C° 0 mm 1 mps 758 mmHg 56%
    02:00 +23°C° 0 mm 1 mps 758 mmHg 56%
    03:00 +23°C° 0 mm 1 mps 758 mmHg 55%
    04:00 +23°C° 0 mm 1 mps 758 mmHg 54%
    05:00 +24°C° 0 mm 1 mps 758 mmHg 52%
    06:00 +25°C° 0 mm 1 mps 758 mmHg 50%
    07:00 +27°C° 0 mm 1 mps 758 mmHg 47%
    08:00 +29°C° 0 mm 1 mps 758 mmHg 42%
    09:00 +31°C° 0 mm 1 mps 758 mmHg 36%
    10:00 +34°C° 0 mm 1 mps 758 mmHg 31%
    11:00 +35°C° 0 mm 2 mps 758 mmHg 31%
    12:00 +36°C° 0 mm 2 mps 757 mmHg 30%
    13:00 +36°C° 0 mm 3 mps 757 mmHg 30%
    14:00 +36°C° 0 mm 3 mps 757 mmHg 31%
    15:00 +35°C° 0 mm 3 mps 756 mmHg 33%
    16:00 +35°C° 0 mm 3 mps 756 mmHg 35%
    17:00 +31°C° 0 mm 2 mps 756 mmHg 42%
    18:00 +29°C° 0 mm 2 mps 756 mmHg 48%
    19:00 +26°C° 0 mm 1 mps 756 mmHg 55%
    20:00 +26°C° 0 mm 1 mps 757 mmHg 55%
    21:00 +26°C° 0 mm 1 mps 757 mmHg 55%
    22:00 +25°C° 0 mm 1 mps 757 mmHg 55%
    23:00 +25°C° 0 mm 1 mps 757 mmHg 54%

    26 August, Saturday

    Time Temperature Precipitation Wind Pressure Humidity
    00:00 +25°C° 0 mm 1 mps 757 mmHg 53%
    01:00 +25°C° 0 mm 1 mps 757 mmHg 52%
    02:00 +25°C° 0 mm 1 mps 756 mmHg 51%
    03:00 +24°C° 0 mm 1 mps 756 mmHg 51%
    04:00 +24°C° 0 mm 1 mps 756 mmHg 50%
    05:00 +25°C° 0 mm 1 mps 756 mmHg 48%
    06:00 +27°C° 0 mm 1 mps 756 mmHg 46%
    07:00 +28°C° 0 mm 1 mps 756 mmHg 44%
    08:00 +30°C° 0 mm 1 mps 756 mmHg 40%
    09:00 +33°C° 0 mm 1 mps 756 mmHg 36%
    10:00 +35°C° 0 mm 1 mps 756 mmHg 32%
    11:00 +36°C° 0 mm 2 mps 756 mmHg 31%
    12:00 +37°C° 0 mm 2 mps 756 mmHg 30%
    13:00 +37°C° 0 mm 3 mps 756 mmHg 29%
    14:00 +37°C° 0 mm 3 mps 755 mmHg 31%
    15:00 +36°C° 0 mm 3 mps 755 mmHg 33%
    16:00 +36°C° 0 mm 3 mps 755 mmHg 35%
    17:00 +32°C° 0 mm 2 mps 755 mmHg 42%
    18:00 +30°C° 0 mm 2 mps 755 mmHg 48%
    19:00 +28°C° 0 mm 1 mps 755 mmHg 55%
    20:00 +27°C° 0 mm 1 mps 755 mmHg 55%
    21:00 +27°C° 0 mm 1 mps 755 mmHg 54%
    22:00 +26°C° 0 mm 2 mps 756 mmHg 54%
    23:00 +26°C° 0 mm 2 mps 755 mmHg 52%

    27 August, Sunday

    Time Temperature Precipitation Wind Pressure Humidity
    00:00 +26°C° 0 mm 2 mps 755 mmHg 50%
    01:00 +26°C° 0 mm 2 mps 755 mmHg 48%
    02:00 +25°C° 0 mm 2 mps 755 mmHg 46%
    03:00 +25°C° 0 mm 2 mps 755 mmHg 45%
    04:00 +25°C° 0 mm 2 mps 755 mmHg 43%
    05:00 +26°C° 0 mm 2 mps 755 mmHg 42%
    06:00 +27°C° 0 mm 1 mps 755 mmHg 41%
    07:00 +28°C° 0 mm 1 mps 755 mmHg 39%
    08:00 +31°C° 0 mm 1 mps 755 mmHg 36%
    09:00 +33°C° 0 mm 1 mps 755 mmHg 32%
    10:00 +35°C° 0 mm 1 mps 755 mmHg 28%
    11:00 +37°C° 0 mm 2 mps 755 mmHg 28%
    12:00 +37°C° 0 mm 2 mps 755 mmHg 28%
    13:00 +38°C° 0 mm 3 mps 754 mmHg 28%
    14:00 +37°C° 0 mm 3 mps 754 mmHg 30%
    15:00 +37°C° 0 mm 3 mps 754 mmHg 31%
    16:00 +37°C° 0 mm 3 mps 754 mmHg 33%
    17:00 +34°C° 0 mm 3 mps 754 mmHg 40%
    18:00 +31°C° 0 mm 2 mps 754 mmHg 47%
    19:00 +28°C° 0 mm 2 mps 754 mmHg 54%
    20:00 +28°C° 0 mm 2 mps 754 mmHg 53%
    21:00 +27°C° 0 mm 2 mps 754 mmHg 52%
    22:00 +27°C° 0 mm 2 mps 754 mmHg 51%
    23:00 +27°C° 0 mm 2 mps 754 mmHg 49%

    28 August, Monday

    Time Temperature Precipitation Wind Pressure Humidity
    00:00 +26°C° 0 mm 2 mps 754 mmHg 47%
    01:00 +26°C° 0 mm 2 mps 754 mmHg 44%
    02:00 +26°C° 0 mm 2 mps 754 mmHg 43%
    03:00 +26°C° 0 mm 2 mps 754 mmHg 41%
    04:00 +25°C° 0 mm 2 mps 754 mmHg 40%
    05:00 +27°C° 0 mm 2 mps 754 mmHg 39%
    06:00 +28°C° 0 mm 1 mps 754 mmHg 39%
    07:00 +29°C° 0 mm 1 mps 754 mmHg 38%
    08:00 +31°C° 0 mm 1 mps 754 mmHg 35%
    09:00 +33°C° 0 mm 1 mps 754 mmHg 31%
    10:00 +36°C° 0 mm 1 mps 754 mmHg 28%
    11:00 +37°C° 0 mm 2 mps 754 mmHg 27%
    12:00 +38°C° 0 mm 2 mps 753 mmHg 27%
    13:00 +38°C° 0 mm 3 mps 753 mmHg 27%
    14:00 +38°C° 0 mm 3 mps 753 mmHg 29%
    15:00 +37°C° 0 mm 3 mps 753 mmHg 31%
    16:00 +37°C° 0 mm 3 mps 753 mmHg 33%
    17:00 +35°C° 0 mm 3 mps 753 mmHg 39%
    18:00 +33°C° 0 mm 3 mps 753 mmHg 44%
    19:00 +30°C° 0 mm 3 mps 753 mmHg 49%
    20:00 +29°C° 0 mm 3 mps 754 mmHg 49%
    21:00 +29°C° 0 mm 3 mps 754 mmHg 48%
    22:00 +28°C° 0 mm 3 mps 754 mmHg 48%
    23:00 +28°C° 0 mm 3 mps 754 mmHg 51%
    Show more